Location: Banska Bystrica
(0.0000°N, 19.1500°E)
Time: 01:34:57
(UTC+02:00)

COBE Rocket - Pass Details

Date: 19 February 2019
Orbit: 681 x 781 km, 97.1° (Epoch: 20 October)

Event Time Altitude Azimuth Distance (km) Brightness Sun altitude
Exits shadow 19:44:00 83° 54° (NE) 773 3.8 -26.1°
Maximum altitude 19:44:09 85° 102° (ESE) 770 3.8 -26.2°
Drops below altitude 10° 19:49:11 10° 189° (S) 2,274 6.7 -27.4°
Sets 19:51:27 0° 190° (S) 3,185 7.5 -28.0°
